Regional Weather Roundup
Issued by NWS

Home | Current Version | Previous Version | Graphics & Text | Print | Product List | Glossary On
Versions: 1 2 3 4 5 6 7 8 9 10 11 12 13 14 15 16 17 18 19 20 21 22 23 24 25 26 27 28 29 30 31 32 33 34 35 36 37 38 39 40 41 42 43 44 45 46 47 48 49 50
000
ASUS45 KCYS 260110
RWRWY

WYOMING REGIONAL WEATHER ROUNDUP
NATIONAL WEATHER SERVICE CHEYENNE WY
700 PM MDT SAT APR 25 2015

NOTE:  "FAIR" INDICATES FEW OR NO CLOUDS BELOW 12,000 FEET
WITH NO SIGNIFICANT WEATHER AND/OR OBSTRUCTIONS TO VISIBILITY.

WYZ001-260200-
YELLOWSTONE NATIONAL PARK

CITY           SKY/WX    TMP DP  RH WIND       PRES   REMARKS
LK YELLOWSTONE   N/A     36  23  59 CALM      29.82R
W YELLOWSTONE  NOT AVBL

$$
WYZ002>013-054>058-071-098>099-260200-
NORTHERN WYOMING

CITY           SKY/WX    TMP DP  RH WIND       PRES   REMARKS
JACKSON        SUNNY     45  21  39 CALM      29.76S
CODY           CLOUDY    45  34  65 N12       29.81R
GREYBULL       FAIR      54  33  45 NW14      29.76R
WORLAND        FAIR      55  34  45 N7        29.76R
SHERIDAN       CLOUDY    44  35  70 N6        29.86R
BUFFALO        FAIR      42  34  73 NW15G28   29.84R
GILLETTE       MOCLDY    45  35  68 N14       29.83R
HULETT         DRIZZLE   41  37  87 N6        29.85R
NEWCASTLE      CLOUDY    50  43  76 NW15      29.78R

$$
WYZ014>020-022>026-101>103-260200-
CENTRAL WYOMING

CITY           SKY/WX    TMP DP  RH WIND       PRES   REMARKS
BIG PINEY      FAIR      48  22  35 E5        29.76R
PINEDALE       FAIR      45  27  49 SE6       29.77R
DUBOIS         MOCLDY    45  19  36 SE12G22   29.74R
LANDER         CLOUDY    50  35  56 E8        29.74R
RIVERTON       FAIR      51  33  50 NE14      29.74R
CASPER         FAIR      48  36  63 N17       29.77R
DOUGLAS        FAIR      53  39  59 NE15      29.76R

$$
WYZ021-027>030-104>119-260200-
SOUTHERN WYOMING

CITY           SKY/WX    TMP DP  RH WIND       PRES   REMARKS
EVANSTON       LGT RAIN  38  36  92 E13       29.75S WCI  30
KEMMERER       LGT RAIN  41  32  70 S8        29.77R
FORT BRIDGER   LGT RAIN  39  39 100 W6        29.79R WCI  35
ROCK SPRINGS   CLOUDY    49  26  41 SW3       29.74S
DIXON          FAIR      53  30  42 CALM      29.79S
RAWLINS        FAIR      50  25  37 W6        29.78R
SARATOGA       FAIR      50  23  34 N6        29.79F
LARAMIE        MOCLDY    47  35  63 SE15      29.79R
CHEYENNE       FAIR      50  39  66 NE7       29.78R
TORRINGTON     FAIR      56  40  55 S9        29.73R
PINE BLUFFS    FAIR      46  45  93 NE12      29.78R

$$



USA.gov is the U.S. government's official web portal to all federal, state and local government web resources and services.